AKDT,Max TemperatureF,Mean TemperatureF,Min TemperatureF,Max Dew PointF,MeanDew PointF,Min DewpointF,Max Humidity, Mean Humidity, Min Humidity, Max Sea Level PressureIn, Mean Sea Level PressureIn, Min Sea Level PressureIn, Max VisibilityMiles, Mean VisibilityMiles, Min VisibilityMiles, Max Wind SpeedMPH, Mean Wind SpeedMPH, Max Gust SpeedMPH,PrecipitationIn, CloudCover, Events, WindDirDegrees
2013-7-1,60,58,55,55,52,46,94,82,67,30.06,30.03,29.98,10,10,3,17,4,21,0.14,8,,139
2013-7-2,57,54,51,48,47,46,88,78,67,30.20,30.15,30.07,10,10,5,9,6,,0.00,7,,129
2013-7-3,57,54,51,54,50,46,88,84,72,30.21,30.18,30.17,10,10,4,10,7,16,0.05,7,,136
2013-7-4,60,56,51,48,47,45,88,74,59,30.28,30.23,30.19,10,10,10,12,3,16,0.00,6,,354
2013-7-5,62,56,48,46,46,45,87,68,55,30.28,30.26,30.22,10,10,10,8,5,,0.00,7,,352
2013-7-6,60,53,46,48,46,43,93,80,59,30.22,30.17,30.11,10,10,10,8,5,,0.00,4,,39
2013-7-7,62,53,44,52,47,41,93,76,59,30.11,30.07,30.00,10,10,4,12,6,20,0.04,2,,93
2013-7-8,57,54,51,54,50,45,94,84,63,30.09,30.00,29.95,10,10,5,13,10,18,0.02,8,,148
2013-7-9,,,,,,,,,,,,,,,,,,,0.00,,,-1
2013-7-10,,,,,,,,,,,,,,,,,,,,,,
2013-7-11,55,55,55,46,46,46,72,72,72,29.95,29.95,29.95,10,10,10,5,4,,0.00,8,,305
2013-7-12,,,,,,,,,,,,,,,,,,,,,,
2013-7-13,,,,,,,,,,,,,,,,,,,,,,
2013-7-14,59,54,50,52,48,45,87,81,77,30.29,30.28,30.28,10,10,10,7,2,,0.00,0,,73
2013-7-15,57,50,44,52,46,41,93,83,72,30.29,30.27,30.20,10,10,10,7,5,,0.00,0,,55
2013-7-16,68,64,57,54,53,52,88,68,60,30.17,30.08,30.03,10,10,10,8,4,,0.00,0,,5
2013-7-17,73,66,59,57,55,50,77,64,50,30.06,30.02,29.99,10,10,10,8,4,,0.00,0,,20
2013-7-18,59,56,53,52,50,48,94,82,72,30.28,30.23,30.06,10,10,10,14,6,20,0.00,7,,138
2013-7-19,62,58,53,54,52,50,94,84,68,30.27,30.21,30.15,10,10,10,7,1,,0.00,8,,207
2013-7-20,62,58,55,55,52,50,88,84,77,30.15,30.09,30.02,10,10,3,8,3,,0.00,8,,125
2013-7-21,60,56,53,52,51,50,88,82,72,30.02,29.99,29.97,10,10,10,9,5,,0.00,8,,126
2013-7-22,55,52,50,52,51,46,94,90,82,30.08,30.05,30.03,10,10,4,7,5,,0.01,8,,115
2013-7-23,59,54,50,55,53,46,94,88,82,30.10,30.09,30.07,10,8,2,6,1,,0.21,8,,181
2013-7-24,60,58,55,55,54,54,94,89,77,30.11,30.11,30.11,10,10,10,5,2,,0.00,7,,180
2013-7-25,60,56,51,54,52,48,94,84,72,30.23,30.19,30.15,10,10,10,8,5,,0.00,7,,161
2013-7-26,60,54,48,52,49,46,94,83,67,30.33,30.27,30.23,10,10,10,7,2,,0.00,7,,52
2013-7-27,59,55,51,52,49,46,88,84,77,30.33,30.31,30.24,10,10,10,6,1,,0.00,6,,16
2013-7-28,60,56,51,54,51,48,88,83,72,30.22,30.20,30.13,10,10,10,5,1,,0.00,1,,45
2013-7-29,73,62,51,55,52,48,88,72,50,30.15,30.13,30.09,10,10,10,8,3,,0.00,0,,26
2013-7-30,62,53,53,54,50,48,88,81,72,30.18,30.15,30.14,10,10,10,7,5,,0.00,0,,66
2013-7-31,73,62,51,57,52,48,94,75,53,30.20,30.16,30.08,10,10,10,7,4,,0.00,0,,38